#timestamp,LO_Frequency,Hit,StdDev 
1652497215.6,286047000.3,N
1652497235.4,286047001.6,N
1652497255.2,286046999.9,N
1652497275.1,286047001.8,N
1652497276.0,286047001.8,N
1652497295.8,286047002.5,N
1652497315.7,286047001.9,N
1652497335.5,286047002.8,N
1652497355.3,286047000.5,N
1652497375.2,286047000.5,N
1652497395.0,286046999.8,N
1652497395.9,286046999.8,N
1652497415.7,286047002.6,N
1652497435.6,286046999.9,N
1652497455.4,286047000.9,N
1652497475.3,286047000.5,N
1652497495.1,286047000.7,N
1652497496.0,286047000.7,N
1652497515.8,286047001.1,N
1652497535.7,286047001.2,N
1652497555.5,286046999.9,N
1652497575.3,286047000.2,N
1652497595.2,286046999.9,N
1652497615.0,286047000.1,N
1652497615.9,286047000.1,N
1652497635.8,286047000.2,N
1652497655.6,286047000.6,N
1652497675.4,286047000.3,N
1652497695.3,286046998.3,N
1652497715.1,286046998.1,N
1652497735.9,286047000.8,N
1652497755.7,286047000.5,N
1652497775.5,286047002.8,N
1652497795.4,286047002.3,N
1652497815.2,286047001.0,N
1652497835.0,286047000.4,N
1652497836.0,286047000.4,N
1652497855.8,286047001.1,N
1652497875.6,286046998.2,N
1652497895.5,286047000.7,N
1652497915.3,286047000.1,N
1652497935.1,286047001.1,N
1652497955.9,286047000.7,N
1652497975.7,286047000.9,N
1652497995.6,286046999.9,N
1652498015.4,286047002.2,N
1652498035.2,286047002.4,N
1652498055.1,286047003.1,N
1652498056.0,286047003.1,N
1652498075.8,286047003.7,N
1652498095.6,286047002.5,N
1652498115.5,286047001.8,N
1652498135.3,286047001.6,N
1652498155.2,286047002.5,N
1652498175.9,286046999.8,N
1652498195.7,286046999.8,N
1652498215.6,286046999.9,N
1652498235.4,286047000.0,N
1652498255.2,286046999.9,N
1652498275.1,286047002.5,N
1652498276.0,286047002.5,N
1652498295.8,286047001.5,N
1652498315.7,286047000.9,N
1652498335.5,286047000.3,N
1652498355.3,286047001.0,N
1652498375.2,286047001.0,N
1652498395.0,286046998.5,N
1652498395.9,286046998.5,N
1652498415.7,286047001.0,N
1652498435.6,286047000.5,N
1652498455.4,286046998.5,N
1652498475.3,286047011.9,Y
1652498495.1,286046999.0,P
1652498515.8,286046999.4,N
1652498535.7,286046999.0,N
1652498555.5,286046999.9,N
1652498575.4,286047000.6,N
1652498595.2,286046999.0,N
1652498615.0,286046998.9,N
1652498615.9,286046998.9,N
1652498635.8,286046996.5,Y
1652498655.6,286046998.8,P
1652498675.4,286046998.9,P
1652498695.3,286046998.7,P
1652498715.1,286046998.8,Y
1652498735.9,286046998.6,P
1652498755.7,286047000.9,P
1652498775.5,286046999.9,N
1652498795.4,286047000.1,N
1652498815.2,286047000.3,N
1652498835.1,286047000.6,N
1652498836.0,286047000.6,N
1652498855.8,286047002.1,N
1652498875.6,286047000.9,N
1652498895.5,286046998.1,N
1652498915.3,286047001.0,N
1652498935.1,286047001.0,N
1652498955.9,286046999.9,N
1652498975.7,286047000.3,N
1652498995.6,286047002.7,N
1652499015.4,286047002.7,N
1652499035.2,286047000.4,N
1652499055.1,286047002.5,N
1652499056.0,286047002.5,N
1652499075.8,286047000.2,N
1652499095.6,286046999.9,N
1652499115.5,286047001.0,N
1652499135.3,286047000.3,N
1652499155.2,286047002.6,N
1652499175.9,286047000.3,N
1652499195.7,286047000.2,N
1652499215.6,286047001.9,N
1652499235.4,286047002.3,N
1652499255.2,286047001.9,N
1652499275.1,286047002.6,N
1652499276.0,286047002.6,N
1652499295.8,286047002.2,N
1652499315.7,286047002.1,N
1652499335.5,286047004.1,Y
1652499355.3,286047000.1,P
1652499375.2,286047001.0,N
1652499395.0,286047000.4,N
1652499395.9,286047000.4,N
1652499415.8,286047000.9,N
1652499435.6,286046998.8,Y
1652499455.4,286046999.3,P
1652499475.3,286047001.0,N
1652499495.1,286047002.1,N
1652499515.8,286047002.7,N
1652499535.7,286047001.9,N
1652499555.5,286047001.6,N
1652499575.4,286047004.1,Y
1652499595.2,286047001.7,P
1652499615.0,286047002.5,P
1652499615.9,286047002.5,P
1652499635.8,286047001.8,Y
1652499655.6,286047000.4,P
1652499675.5,286047002.8,P
1652499695.3,286047000.6,N
1652499715.1,286046998.3,N
1652499735.9,286046996.6,N
1652499755.7,286046995.8,N
1652499775.6,286046993.6,N
1652499795.4,286046994.0,N
1652499815.2,286046994.2,N
1652499835.1,286046994.8,N
1652499836.0,286046994.8,N
1652499855.8,286046991.9,N
1652499875.6,286046990.2,N
1652499895.5,286046993.0,N
1652499915.3,286046992.7,N
1652499935.2,286046990.5,N
1652499955.9,286046991.0,N
1652499975.7,286046991.5,N
1652499995.6,286046991.6,N
1652500015.4,286046990.4,N
1652500035.2,286046991.1,N
1652500055.1,286046990.3,N
1652500056.0,286046990.3,N
1652500075.8,286046988.5,N
1652500095.7,286046991.5,N
1652500115.5,286046993.1,N
1652500135.3,286046993.0,N
1652500155.2,286046992.5,N
1652500175.0,286046992.9,N
1652500175.9,286046992.9,N
1652500195.7,286046992.0,N
1652500215.6,286046992.9,N
1652500235.4,286046992.9,N
1652500255.3,286046992.4,Y
1652500275.1,286046998.5,P
1652500295.8,286046999.2,N
1652500315.7,286046996.6,N
1652500335.5,286046997.0,N
1652500355.4,286046996.6,N
1652500375.2,286046999.2,N
1652500395.0,286046996.9,N
1652500395.9,286046996.9,N
1652500415.8,286046996.7,N
1652500435.6,286046996.7,N
1652500455.4,286046996.9,N
1652500475.3,286046996.7,N
1652500495.1,286046997.3,N
1652500515.9,286046996.5,N
1652500535.7,286046996.9,N
1652500555.5,286046998.4,N
1652500575.4,286047000.3,N
1652500595.2,286047000.6,N
1652500615.1,286046998.5,N
1652500616.0,286046998.5,N
1652500635.8,286046998.3,N
1652500655.6,286046998.9,N
1652500675.5,286047001.2,N
1652500695.3,286046998.4,N
1652500715.1,286047000.5,N
1652500735.9,286046998.6,N
1652500755.7,286046999.0,N
1652500775.6,286046996.9,N
1652500795.4,286046999.2,N
